Simultaneous Nadir Overpasses (SNOs) Predictions

Prediction of SNOs between METOP-B and NOAA-19 Satellite Orbit:

Table of predicted SNOs for the next 14.0 days since TLE Epoch: 7/25/2014
Index Date (METOP-B) Time (METOP-B) Lat,Lon (METOP-B) SZA (METOP-B ) Date (NOAA-19) Time (NOAA-19) Lat,Lon (NOAA-19) SZA (NOAA-19 ) Distance(km) Time Diff (sec)
1 08/04/2014 02:47:11 74.43, 134.02 57.15 08/04/2014 02:46:00 74.44, 132.69 57.22 39.74 71
2 08/04/2014 03:37:59 -74.15, -59.35 123.10 08/04/2014 03:37:00 -74.13, -59.27 123.11 3.34 59
3 08/04/2014 04:28:38 74.16, 108.01 56.92 08/04/2014 04:27:57 74.13, 108.01 56.89 3.73 41
4 08/04/2014 05:19:21 -74.13, -84.74 123.10 08/04/2014 05:19:03 -74.11, -84.71 123.12 2.72 18
5 08/04/2014 06:10:01 74.09, 82.49 56.87 08/04/2014 06:10:00 74.10, 82.56 56.88 2.54 1
6 08/04/2014 07:00:43 -74.11,-110.14 123.10 08/04/2014 07:01:06 -74.08,-110.16 123.13 3.21 23
7 08/04/2014 07:51:23 74.07, 57.10 56.87 08/04/2014 07:52:03 74.08, 57.12 56.88 0.85 40
8 08/04/2014 08:42:06 -74.04,-135.65 123.15 08/04/2014 08:43:09 -74.06,-135.61 123.14 2.12 63
9 08/04/2014 09:32:50 73.80, 31.11 56.65 08/04/2014 09:34:01 73.81, 32.28 56.60 36.26 71




NCC Satellite Simultaneous Nadir Overpasses (SNOs) Prediction Service
